Theta_e
289 288 288 288 288 287 288 288 290 290 291 291 291 292 292 292 292 293 293 293 293 295
288 287 286 287 287 288 289 288 288 288 288 288 288 289 289 289 291 291 291 291 292 293
286 286 286 286 286 286 286 286 286 286 286 287 287 287 287 287 288 288 290 291 291 291
285 285 286 285 285 286 286 286 285 285 285 285 285 286 286 286 287 286 287 288 290 290
285 285 284 284 285 286 286 286 286 285 285 285 285 285 284 284 285 285 285 286 287 288
283 283 283 284 285 285 285 285 285 285 284 284 284 284 284 284 285 285 285 286 285 287
283 283 283 284 285 285 285 284 284 284 283 283 283 283 283 283 284 285 285 285 286 286
283 283 284 284 284 284 284 284 284 283 283 283 282 282 282 284 284 284 284 286 286 286
282 283 283 283 283 283 283 284 283 282 282 282 283 284 286 284 282 282 282 282 283 285
282 282 283 283 283 282 282 283 281 281 282 281 281 284 285 282 280 279 280 282 282 283
281 282 283 283 282 281 281 279 280 282 282 282 281 284 285 281 278 278 278 281 282 283
281 282 282 282 282 280 279 279 280 281 281 280 280 284 285 280 278 277 277 279 284 285
282 282 282 282 282 280 278 278 280 279 279 279 279 283 285 282 278 276 276 279 285 285
282 283 283 283 278 278 278 277 277 278 279 279 280 281 284 283 279 277 276 276 282 284
Wind_Speed
8 7 8 9 10 9 9 11 13 12 13 15 15 15 15 13 13 13 12 18 16 13
8 9 9 12 11 9 11 11 13 15 15 15 16 16 16 13 16 16 16 16 17 13
9 9 10 10 12 12 13 14 15 15 14 16 16 16 17 15 16 17 14 14 17 16
8 9 10 10 11 12 13 14 16 16 15 17 17 17 17 18 19 20 18 18 18 18
8 9 10 11 12 12 13 14 14 16 16 16 17 16 18 20 18 20 20 19 18 18
7 8 10 11 12 12 14 14 14 15 16 17 17 18 18 19 19 20 19 18 18 17
7 8 9 11 11 12 13 14 15 16 16 15 16 16 17 20 21 19 18 18 17 17
6 7 10 10 11 12 12 12 14 14 14 14 13 12 22 20 16 16 16 15 16 17
5 8 9 9 11 11 12 13 13 13 13 15 12 30 31 24 15 13 13 14 15 14
6 7 8 9 10 10 12 13 13 12 12 14 16 33 30 29 14 15 15 13 12 12
4 6 7 7 9 10 9 11 11 11 13 14 13 30 29 29 16 15 18 15 12 11
3 5 5 7 9 9 9 10 11 11 14 15 16 30 32 23 16 17 19 18 8 8
4 4 4 4 8 6 7 9 8 11 11 13 15 27 32 24 13 18 17 21 10 12
4 4 3 4 3 5 8 9 9 8 10 12 15 19 32 32 13 14 15 18 18 13
Wind_Direction
304 302 300 300 303 297 299 301 302 299 299 296 293 290 284 277 269 266 264 253 242 243
302 304 301 298 292 299 304 308 310 308 303 301 297 292 290 284 277 266 255 249 259 267
303 303 300 300 300 306 309 311 306 305 301 298 295 292 288 283 278 272 272 255 239 249
305 302 302 299 301 312 309 309 311 311 304 302 298 293 288 282 280 274 271 264 257 234
302 298 301 301 308 312 310 313 311 306 302 299 297 294 288 284 279 275 270 267 259 257
304 304 306 314 318 319 319 316 310 307 307 308 303 300 295 287 283 275 267 262 256 252
309 307 310 321 323 320 322 316 314 315 310 307 308 304 306 303 284 268 259 253 250 246
306 311 328 327 327 322 323 316 315 308 308 307 312 320 313 306 300 289 278 262 247 236
325 336 332 336 329 327 322 315 309 313 309 313 319 325 329 335 323 308 300 276 265 247
342 328 337 338 327 329 318 311 311 317 326 336 342 338 348 350 333 323 315 291 268 238
325 315 336 344 330 321 310 309 306 325 339 347 346 345 1 358 342 336 328 306 280 235
290 310 338 342 327 318 313 315 320 327 336 351 349 354 3 6 351 346 342 328 320 161
251 280 300 318 321 313 310 307 325 325 330 344 350 360 8 15 359 358 357 353 49 118
232 261 299 329 305 313 326 323 331 334 324 340 359 356 13 18 11 12 12 15 36 37